Location: Long Island Community Building
(39.9491°N, 99.5338°W)
Time: 06:14:33
(UTC+00:00)

Meteor 1-14 Rocket - Pass Details

Date: 06 December 2019
Orbit: 833 x 920 km, 81.3° (Epoch: 17 January)

Event Time Altitude Azimuth Distance (km) Brightness Sun altitude
Rises 23:33:45 0° 350° (N) 3,554 7.3 -4.4°
Reaches altitude 10° 23:36:14 10° 350° (N) 2,600 6.6 -4.8°
Maximum altitude 23:42:11 86° 262° (W) 903 4.5 -5.8°
Drops below altitude 10° 23:47:58 10° 174° (S) 2,530 6.9 -6.9°
Sets 23:50:22 0° 174° (S) 3,451 7.6 -7.3°
